Location: Castrojimeno
(41.3966°N, 3.8473°W)
Time: 13:29:53
(UTC+00:00)

Cosmos 1933 - Pass Details

Date: 15 May 2026
Orbit: 508 x 512 km, 82.5° (Epoch: 11 June)

Event Time Altitude Azimuth Distance (km) Brightness Sun altitude
Exits shadow 21:20:24 34° 181° (S) 863 3.9 -17.7°
Maximum altitude 21:21:58 82° 97° (E) 521 3.0 -17.9°
Drops below altitude 10° 21:25:48 10° 10° (N) 1,741 6.4 -18.4°
Sets 21:27:56 0° 9° (N) 2,633 7.4 -18.7°
